QPF
0.00 0.00 0.00 0.00 0.00 0.00 0.00 0.00 0.00 0.00 0.00 0.00 0.00 0.00 0.00 0.00 0.00 0.00 0.00 0.00 0.00 0.00 0.00 0.00 0.00 0.00 0.00 0.00 0.00 0.00 0.00 0.00 0.00 0.00 0.00 0.00 0.00 0.00 0.00 0.00 0.00 0.00 0.00 0.00
0.00 0.00 0.00 0.00 0.00 0.00 0.00 0.00 0.00 0.00 0.00 0.00 0.00 0.00 0.00 0.00 0.00 0.00 0.00 0.00 0.00 0.00 0.00 0.00 0.00 0.00 0.00 0.00 0.00 0.00 0.00 0.00 0.00 0.00 0.00 0.00 0.00 0.00 0.01 0.01 0.00 0.00 0.00 0.00
0.00 0.00 0.00 0.00 0.00 0.00 0.00 0.00 0.00 0.00 0.00 0.00 0.00 0.00 0.00 0.00 0.00 0.00 0.00 0.00 0.00 0.00 0.00 0.00 0.00 0.00 0.00 0.00 0.00 0.00 0.00 0.00 0.00 0.00 0.00 0.00 0.00 0.03 0.03 0.02 0.00 0.00 0.00 0.00
0.00 0.00 0.00 0.00 0.00 0.00 0.00 0.00 0.00 0.00 0.00 0.00 0.00 0.00 0.00 0.00 0.00 0.00 0.00 0.00 0.00 0.00 0.00 0.00 0.00 0.00 0.00 0.00 0.00 0.00 0.00 0.00 0.00 0.00 0.00 0.00 0.06 0.10 0.03 0.00 0.00 0.00 0.00 0.00
0.00 0.00 0.00 0.00 0.00 0.00 0.00 0.00 0.00 0.00 0.00 0.00 0.00 0.00 0.00 0.00 0.00 0.00 0.00 0.00 0.00 0.00 0.00 0.00 0.00 0.00 0.00 0.00 0.00 0.00 0.00 0.00 0.00 0.00 0.00 0.07 0.12 0.04 0.00 0.00 0.00 0.00 0.00 0.00
0.00 0.00 0.00 0.00 0.00 0.00 0.00 0.00 0.00 0.00 0.00 0.00 0.00 0.00 0.00 0.00 0.00 0.00 0.00 0.00 0.00 0.00 0.00 0.00 0.00 0.00 0.00 0.00 0.00 0.00 0.00 0.00 0.01 0.01 0.05 0.10 0.03 0.00 0.00 0.00 0.00 0.00 0.00 0.00
0.00 0.00 0.00 0.00 0.00 0.00 0.00 0.00 0.00 0.00 0.00 0.00 0.00 0.00 0.00 0.00 0.00 0.00 0.00 0.00 0.00 0.00 0.00 0.00 0.00 0.00 0.00 0.00 0.00 0.00 0.01 0.02 0.03 0.05 0.06 0.01 0.00 0.00 0.00 0.00 0.00 0.00 0.00 0.00
0.00 0.00 0.00 0.00 0.00 0.00 0.00 0.00 0.00 0.00 0.00 0.00 0.00 0.00 0.00 0.00 0.00 0.00 0.00 0.00 0.00 0.00 0.00 0.00 0.00 0.00 0.00 0.00 0.00 0.01 0.02 0.03 0.04 0.03 0.00 0.00 0.00 0.00 0.00 0.00 0.00 0.00 0.00 0.00
0.00 0.00 0.00 0.00 0.00 0.00 0.00 0.00 0.00 0.00 0.00 0.00 0.00 0.00 0.00 0.00 0.00 0.00 0.00 0.00 0.00 0.00 0.00 0.00 0.00 0.00 0.00 0.00 0.00 0.01 0.02 0.02 0.01 0.00 0.00 0.00 0.00 0.00 0.00 0.00 0.00 0.00 0.00 0.00
0.00 0.00 0.00 0.00 0.00 0.00 0.00 0.00 0.00 0.00 0.00 0.00 0.00 0.00 0.00 0.00 0.00 0.00 0.00 0.00 0.00 0.00 0.00 0.00 0.00 0.00 0.01 0.01 0.01 0.01 0.00 0.00 0.00 0.00 0.00 0.00 0.00 0.00 0.00 0.00 0.00 0.00 0.00 0.00
0.00 0.00 0.00 0.00 0.00 0.00 0.00 0.00 0.00 0.00 0.00 0.00 0.00 0.00 0.00 0.00 0.00 0.00 0.00 0.00 0.00 0.00 0.00 0.00 0.00 0.01 0.03 0.01 0.00 0.00 0.00 0.00 0.00 0.00 0.00 0.00 0.00 0.00 0.00 0.00 0.00 0.00 0.00 0.00
0.00 0.00 0.00 0.00 0.00 0.00 0.00 0.00 0.00 0.00 0.00 0.00 0.00 0.00 0.00 0.00 0.00 0.00 0.00 0.00 0.00 0.00 0.00 0.00 0.00 0.01 0.01 0.00 0.00 0.00 0.00 0.00 0.00 0.00 0.00 0.00 0.00 0.00 0.00 0.00 0.00 0.00 0.00 0.00
0.00 0.00 0.00 0.00 0.00 0.00 0.00 0.00 0.00 0.00 0.00 0.00 0.00 0.00 0.00 0.00 0.00 0.00 0.00 0.00 0.00 0.00 0.00 0.00 0.00 0.00 0.00 0.00 0.00 0.00 0.00 0.00 0.00 0.00 0.00 0.00 0.00 0.00 0.00 0.00 0.00 0.00 0.00 0.00
0.00 0.00 0.00 0.00 0.00 0.00 0.00 0.00 0.00 0.00 0.00 0.00 0.00 0.00 0.00 0.00 0.00 0.00 0.00 0.00 0.00 0.00 0.00 0.00 0.00 0.00 0.00 0.00 0.00 0.00 0.00 0.00 0.00 0.00 0.00 0.00 0.00 0.00 0.00 0.00 0.00 0.00 0.00 0.00
0.00 0.00 0.00 0.00 0.00 0.00 0.00 0.00 0.00 0.00 0.00 0.00 0.00 0.00 0.00 0.00 0.00 0.00 0.00 0.00 0.00 0.00 0.00 0.00 0.00 0.00 0.00 0.00 0.00 0.00 0.00 0.00 0.00 0.00 0.00 0.00 0.00 0.00 0.00 0.00 0.00 0.00 0.00 0.00
0.00 0.00 0.00 0.00 0.00 0.00 0.00 0.00 0.00 0.00 0.00 0.00 0.00 0.00 0.00 0.00 0.00 0.00 0.00 0.00 0.00 0.00 0.00 0.00 0.00 0.00 0.00 0.00 0.00 0.00 0.00 0.00 0.00 0.00 0.00 0.00 0.00 0.00 0.00 0.00 0.00 0.00 0.00 0.00
0.00 0.00 0.00 0.00 0.00 0.00 0.00 0.00 0.00 0.00 0.00 0.00 0.00 0.00 0.00 0.00 0.00 0.00 0.00 0.00 0.00 0.00 0.00 0.00 0.00 0.00 0.00 0.00 0.00 0.00 0.00 0.00 0.00 0.00 0.00 0.00 0.00 0.00 0.00 0.00 0.00 0.00 0.00 0.00
0.00 0.00 0.00 0.00 0.00 0.00 0.00 0.00 0.00 0.00 0.00 0.00 0.00 0.00 0.00 0.00 0.00 0.00 0.00 0.00 0.00 0.00 0.00 0.00 0.00 0.00 0.00 0.00 0.00 0.00 0.00 0.00 0.00 0.00 0.00 0.00 0.00 0.00 0.00 0.00 0.00 0.00 0.00 0.00
0.00 0.00 0.00 0.00 0.00 0.00 0.00 0.00 0.00 0.00 0.00 0.00 0.00 0.00 0.00 0.00 0.00 0.00 0.00 0.00 0.00 0.00 0.00 0.00 0.00 0.00 0.00 0.00 0.00 0.00 0.00 0.00 0.00 0.00 0.00 0.00 0.00 0.00 0.00 0.00 0.00 0.00 0.00 0.00
0.00 0.00 0.00 0.00 0.00 0.00 0.00 0.00 0.00 0.00 0.00 0.00 0.00 0.00 0.00 0.00 0.00 0.00 0.00 0.00 0.00 0.00 0.00 0.00 0.00 0.00 0.00 0.00 0.00 0.00 0.00 0.00 0.00 0.00 0.00 0.00 0.00 0.00 0.00 0.00 0.00 0.00 0.00 0.00
0.00 0.00 0.00 0.00 0.00 0.00 0.00 0.00 0.00 0.00 0.00 0.00 0.00 0.00 0.00 0.00 0.00 0.00 0.00 0.00 0.00 0.00 0.00 0.00 0.00 0.00 0.00 0.00 0.00 0.00 0.00 0.00 0.00 0.00 0.00 0.00 0.00 0.00 0.00 0.00 0.00 0.00 0.00 0.00
0.00 0.00 0.00 0.00 0.00 0.00 0.00 0.00 0.00 0.00 0.00 0.00 0.00 0.00 0.00 0.00 0.00 0.00 0.00 0.00 0.00 0.00 0.00 0.00 0.00 0.00 0.00 0.00 0.00 0.00 0.00 0.00 0.00 0.00 0.00 0.00 0.00 0.00 0.00 0.00 0.00 0.00 0.00 0.00
0.00 0.00 0.00 0.00 0.00 0.00 0.00 0.00 0.00 0.00 0.00 0.00 0.00 0.00 0.00 0.00 0.00 0.00 0.00 0.00 0.00 0.00 0.00 0.00 0.00 0.00 0.00 0.00 0.00 0.00 0.00 0.00 0.00 0.00 0.00 0.00 0.00 0.00 0.00 0.00 0.00 0.00 0.00 0.00
0.00 0.00 0.00 0.00 0.00 0.00 0.00 0.00 0.00 0.00 0.00 0.00 0.00 0.00 0.00 0.00 0.00 0.00 0.00 0.00 0.00 0.00 0.00 0.00 0.00 0.00 0.00 0.00 0.00 0.00 0.00 0.00 0.00 0.00 0.00 0.00 0.00 0.00 0.00 0.00 0.00 0.00 0.00 0.00
0.00 0.00 0.00 0.00 0.00 0.00 0.00 0.00 0.00 0.00 0.00 0.00 0.00 0.00 0.00 0.00 0.00 0.00 0.00 0.00 0.00 0.00 0.00 0.00 0.00 0.00 0.00 0.00 0.00 0.00 0.00 0.00 0.00 0.00 0.00 0.00 0.00 0.00 0.00 0.00 0.00 0.00 0.00 0.00
0.00 0.00 0.00 0.00 0.00 0.01 0.03 0.01 0.00 0.00 0.00 0.00 0.00 0.00 0.00 0.00 0.00 0.00 0.00 0.00 0.00 0.00 0.00 0.00 0.00 0.00 0.00 0.00 0.00 0.00 0.00 0.00 0.00 0.00 0.00 0.00 0.00 0.00 0.00 0.00 0.00 0.00 0.00 0.00
MSLP
1010.55 1011.35 1011.68 1011.81 1011.93 1011.82 1011.79 1011.71 1011.51 1010.60 1009.80 1009.77 1009.76 1010.01 1009.82 1009.93 1010.53 1010.74 1011.21 1011.68 1011.83 1011.70 1012.09 1013.10 1013.77 1014.33 1014.77 1015.35 1016.03 1016.57 1017.00 1017.54 1017.98 1018.45 1018.78 1018.87 1019.28 1019.91 1020.42 1020.66 1020.97 1020.86 1020.72 1020.45
1011.17 1011.30 1011.12 1011.31 1011.40 1011.51 1011.52 1011.47 1011.16 1010.50 1010.13 1010.04 1010.19 1009.99 1009.88 1010.03 1009.53 1009.76 1010.58 1011.41 1011.78 1012.36 1012.62 1013.20 1013.86 1014.59 1015.15 1015.83 1016.69 1017.40 1017.99 1018.42 1018.88 1018.96 1019.22 1019.43 1019.83 1020.50 1020.89 1021.23 1021.21 1021.08 1020.95 1020.78
1011.16 1010.78 1010.56 1010.78 1010.91 1011.13 1011.20 1011.18 1010.90 1011.05 1010.67 1010.59 1010.71 1010.97 1010.73 1010.38 1010.55 1010.92 1011.36 1011.93 1012.14 1012.32 1013.11 1013.87 1014.45 1015.24 1016.19 1017.02 1017.72 1018.60 1019.25 1019.53 1019.70 1019.74 1019.79 1020.08 1020.39 1020.63 1020.95 1021.23 1021.66 1021.50 1021.27 1020.88
1010.82 1010.18 1010.14 1010.22 1010.38 1010.46 1010.55 1010.13 1010.55 1011.08 1011.62 1011.90 1011.97 1012.61 1011.79 1011.57 1011.52 1011.72 1012.60 1013.40 1013.36 1013.22 1013.48 1014.22 1015.68 1016.88 1017.58 1018.33 1018.78 1019.57 1020.03 1020.38 1020.87 1020.93 1020.85 1020.82 1021.35 1021.76 1022.30 1022.30 1022.29 1021.72 1021.22 1020.82
1010.26 1009.91 1009.67 1009.68 1009.65 1009.88 1010.24 1010.20 1010.97 1011.63 1012.40 1012.76 1012.99 1013.46 1012.83 1012.85 1013.37 1013.98 1014.46 1014.78 1014.82 1014.02 1014.43 1015.99 1017.15 1018.03 1018.99 1019.73 1020.07 1020.69 1020.89 1021.36 1021.63 1021.53 1021.90 1022.52 1022.38 1022.55 1022.63 1022.61 1022.30 1021.74 1021.07 1020.37
1009.99 1009.53 1009.28 1009.00 1009.10 1009.49 1009.97 1010.95 1012.20 1013.37 1013.98 1014.83 1014.14 1014.44 1014.53 1014.98 1015.47 1015.67 1016.44 1016.60 1016.27 1015.88 1016.30 1017.15 1018.10 1018.54 1019.42 1020.06 1020.42 1021.12 1021.76 1022.03 1022.00 1022.28 1022.16 1023.41 1023.09 1022.83 1022.80 1022.66 1022.30 1021.83 1021.10 1020.81
1010.09 1009.57 1009.00 1008.77 1009.15 1009.77 1010.64 1012.23 1013.85 1015.20 1015.92 1015.86 1014.96 1015.33 1015.32 1015.49 1015.88 1016.23 1016.55 1016.83 1016.98 1017.18 1017.61 1018.29 1018.96 1019.52 1019.86 1020.10 1020.28 1020.85 1022.08 1022.36 1021.88 1022.55 1022.78 1023.91 1023.32 1023.15 1023.06 1022.79 1022.33 1022.09 1021.83 1021.31
1010.59 1009.89 1008.97 1008.62 1008.88 1009.63 1010.84 1012.19 1013.90 1015.43 1016.96 1016.39 1015.88 1015.78 1015.46 1015.80 1016.41 1016.86 1017.36 1017.91 1018.09 1018.45 1018.69 1019.06 1019.50 1020.08 1020.73 1021.04 1021.18 1021.71 1020.83 1022.94 1022.98 1022.78 1022.63 1023.56 1023.39 1023.37 1023.25 1022.85 1022.55 1022.30 1021.75 1021.11
1010.45 1009.89 1008.78 1008.37 1008.45 1009.23 1011.01 1012.22 1013.19 1015.31 1017.14 1017.20 1016.48 1016.21 1015.90 1016.20 1016.95 1017.59 1018.16 1018.71 1019.31 1019.49 1019.78 1019.95 1020.24 1020.51 1020.79 1021.20 1021.32 1020.97 1021.92 1022.62 1022.48 1023.00 1023.10 1023.21 1023.44 1023.02 1023.32 1023.11 1022.68 1022.03 1021.12 1020.65
1009.81 1009.95 1009.16 1008.55 1008.81 1009.79 1010.47 1011.89 1013.64 1015.42 1017.40 1017.97 1017.07 1016.67 1016.08 1016.34 1017.18 1018.03 1018.70 1019.01 1019.48 1019.97 1020.38 1020.74 1021.19 1021.59 1021.90 1022.09 1021.95 1021.33 1021.11 1021.70 1022.29 1023.08 1023.51 1023.40 1023.27 1023.19 1023.33 1023.07 1022.47 1021.52 1020.86 1020.44
1009.83 1010.20 1010.06 1009.46 1009.62 1010.14 1011.28 1012.38 1014.06 1015.58 1016.79 1017.52 1017.52 1016.62 1015.11 1015.83 1016.49 1017.41 1018.34 1018.98 1019.49 1020.21 1020.82 1021.27 1021.84 1022.28 1022.67 1022.59 1022.80 1023.00 1022.69 1021.41 1022.52 1023.29 1023.39 1023.15 1023.36 1023.10 1023.03 1022.60 1022.00 1021.38 1020.59 1020.15
1009.40 1010.16 1010.81 1010.64 1010.23 1010.34 1010.87 1012.15 1013.45 1015.37 1017.14 1017.50 1017.11 1015.70 1014.83 1015.49 1016.33 1017.10 1017.93 1018.70 1019.54 1020.14 1020.94 1021.73 1022.20 1022.52 1022.90 1023.02 1023.35 1023.44 1022.65 1022.71 1023.08 1023.00 1023.30 1023.56 1023.39 1022.92 1022.76 1022.17 1021.76 1021.02 1020.48 1019.86
1009.23 1010.58 1011.36 1011.43 1011.22 1010.84 1011.39 1012.23 1013.16 1014.57 1015.85 1016.91 1017.01 1015.87 1014.92 1015.42 1016.06 1016.89 1017.81 1018.70 1019.46 1020.35 1021.08 1021.71 1022.15 1022.56 1022.82 1023.27 1023.28 1023.19 1023.07 1023.38 1023.62 1023.10 1023.44 1023.38 1023.04 1022.78 1022.57 1022.12 1021.54 1020.71 1020.46 1019.75
1008.94 1010.91 1011.04 1011.40 1011.16 1011.21 1011.69 1012.23 1012.96 1013.47 1015.21 1016.30 1016.10 1015.48 1015.18 1015.50 1015.92 1016.68 1017.62 1018.57 1019.48 1020.28 1021.13 1021.70 1022.47 1022.78 1022.93 1023.14 1023.39 1023.56 1023.60 1023.57 1023.31 1023.18 1023.37 1023.13 1022.67 1022.82 1022.45 1021.77 1021.40 1020.88 1020.47 1019.87
1009.84 1011.39 1011.60 1011.69 1011.33 1011.16 1011.68 1012.33 1012.87 1013.31 1014.11 1014.69 1015.00 1015.13 1014.32 1014.60 1015.13 1015.60 1016.83 1018.34 1019.52 1020.42 1021.12 1021.77 1022.19 1022.67 1023.10 1023.60 1023.95 1023.37 1023.35 1023.44 1023.28 1023.26 1023.37 1023.23 1022.83 1022.55 1021.91 1022.02 1021.44 1021.18 1020.51 1020.01
1010.90 1012.29 1012.19 1012.57 1012.07 1011.72 1011.98 1012.22 1012.69 1013.13 1013.61 1014.04 1014.32 1014.65 1013.88 1014.38 1014.96 1015.98 1016.79 1017.92 1019.02 1019.97 1020.81 1021.52 1022.09 1022.52 1023.04 1023.46 1024.10 1023.88 1023.16 1023.44 1023.30 1023.39 1023.51 1023.24 1022.91 1022.26 1021.89 1022.30 1021.83 1021.38 1020.62 1020.36
1011.56 1012.71 1013.16 1013.52 1013.01 1012.37 1012.20 1012.05 1012.09 1012.72 1013.23 1013.54 1014.44 1014.33 1014.63 1015.05 1015.58 1016.03 1016.70 1017.58 1018.53 1019.43 1020.42 1021.25 1021.83 1022.28 1022.71 1023.55 1022.71 1023.91 1023.50 1023.40 1023.50 1023.35 1023.49 1023.23 1022.78 1022.04 1022.47 1022.20 1022.29 1021.58 1021.10 1020.76
1011.96 1013.03 1013.73 1014.54 1013.73 1013.34 1012.30 1011.83 1011.83 1012.60 1013.27 1013.76 1014.16 1014.48 1015.06 1015.52 1016.25 1016.63 1016.87 1017.57 1018.48 1019.35 1020.24 1021.15 1021.97 1022.63 1023.15 1023.69 1023.90 1023.38 1023.68 1023.77 1023.62 1023.45 1023.50 1023.08 1022.41 1022.24 1022.56 1022.39 1022.46 1021.83 1021.48 1021.13
1011.98 1013.00 1014.63 1015.03 1014.84 1014.15 1012.85 1012.42 1012.34 1012.80 1013.54 1013.86 1014.37 1015.00 1015.62 1016.29 1016.71 1017.13 1017.43 1017.77 1018.53 1019.34 1020.24 1021.16 1021.97 1022.62 1023.15 1023.44 1023.75 1023.61 1024.00 1024.10 1023.82 1023.62 1023.25 1022.84 1022.40 1022.35 1022.30 1022.65 1022.46 1022.07 1021.80 1021.29
1012.63 1013.02 1014.27 1015.62 1015.40 1014.53 1012.74 1011.85 1011.77 1012.35 1013.35 1013.54 1014.25 1015.14 1016.02 1016.81 1017.68 1017.54 1018.03 1018.37 1019.26 1019.86 1020.49 1021.29 1022.06 1022.61 1022.69 1022.93 1023.36 1023.77 1024.31 1024.22 1023.85 1023.37 1023.12 1022.77 1022.55 1022.23 1022.26 1022.51 1022.35 1022.11 1021.95 1021.43
1013.80 1014.62 1015.25 1015.75 1015.24 1014.16 1012.49 1012.01 1012.13 1013.07 1013.70 1013.38 1014.10 1014.90 1015.94 1016.94 1017.47 1018.00 1018.66 1019.34 1019.73 1020.30 1020.92 1021.67 1022.13 1022.55 1023.09 1022.85 1023.18 1024.10 1024.27 1024.01 1023.59 1023.35 1023.07 1022.61 1022.35 1022.07 1022.28 1022.24 1022.12 1022.01 1021.88 1021.41
1013.83 1014.85 1015.72 1016.01 1015.24 1013.97 1012.14 1012.40 1012.64 1012.69 1013.07 1013.45 1014.14 1014.87 1015.98 1017.07 1018.09 1018.75 1019.41 1020.01 1020.43 1020.73 1021.20 1021.73 1022.35 1022.77 1023.04 1022.93 1023.61 1024.05 1024.00 1023.78 1023.39 1023.25 1023.02 1022.57 1022.16 1022.15 1022.13 1022.12 1021.88 1021.82 1021.83 1021.53
1014.04 1014.04 1014.44 1014.72 1014.01 1013.05 1012.45 1012.24 1012.09 1012.47 1013.04 1013.84 1014.45 1015.29 1016.21 1017.36 1018.43 1019.18 1019.87 1020.40 1020.73 1021.01 1021.36 1021.79 1022.18 1022.78 1022.92 1023.19 1023.60 1023.65 1023.52 1023.40 1023.29 1023.11 1022.88 1022.54 1022.32 1022.23 1022.02 1021.94 1021.67 1021.73 1021.75 1021.56
1014.14 1014.10 1014.28 1014.48 1013.78 1013.29 1012.84 1012.72 1012.63 1012.90 1013.46 1014.22 1014.81 1015.63 1016.44 1017.39 1018.47 1019.22 1019.83 1020.47 1020.88 1021.08 1021.35 1021.74 1022.18 1022.50 1022.77 1022.91 1023.27 1023.27 1023.21 1023.22 1023.03 1022.97 1022.95 1022.73 1022.58 1022.22 1021.87 1021.61 1021.45 1021.44 1021.36 1021.34
1014.38 1014.32 1014.54 1014.46 1013.94 1013.54 1013.17 1013.13 1013.21 1013.59 1014.04 1014.74 1015.54 1016.16 1016.87 1017.56 1018.46 1019.01 1019.74 1020.32 1020.74 1021.16 1021.49 1021.98 1022.32 1022.43 1022.59 1022.86 1023.01 1022.93 1022.92 1022.76 1022.87 1023.04 1022.89 1022.72 1022.54 1022.32 1021.81 1021.41 1021.12 1020.98 1020.75 1020.75
1014.31 1014.16 1014.31 1014.18 1013.85 1013.87 1013.76 1013.69 1013.66 1013.94 1014.51 1015.15 1015.71 1016.67 1017.26 1017.67 1018.41 1019.19 1019.88 1020.29 1020.75 1021.24 1021.70 1022.28 1022.44 1022.42 1022.62 1022.80 1022.83 1022.75 1022.80 1022.50 1022.88 1023.01 1022.92 1022.71 1022.37 1022.06 1021.78 1021.36 1020.84 1020.37 1020.29 1020.28
Thickness
5753 5737 5727 5736 5740 5745 5744 5738 5735 5746 5763 5763 5762 5761 5771 5778 5777 5774 5774 5772 5773 5779 5780 5771 5766 5760 5755 5751 5744 5738 5733 5726 5719 5711 5703 5698 5691 5682 5674 5668 5661 5656 5652 5647
5734 5724 5740 5745 5743 5741 5740 5736 5734 5749 5760 5760 5755 5762 5768 5771 5784 5787 5781 5774 5772 5771 5771 5765 5761 5756 5751 5744 5735 5728 5720 5714 5707 5702 5695 5690 5683 5673 5665 5657 5653 5647 5640 5634
5721 5737 5746 5745 5742 5735 5733 5732 5738 5738 5750 5754 5750 5745 5749 5770 5773 5775 5774 5770 5770 5767 5762 5757 5753 5746 5739 5731 5722 5712 5704 5700 5695 5692 5686 5679 5672 5665 5658 5651 5641 5634 5627 5622
5727 5742 5742 5740 5734 5735 5729 5747 5746 5747 5732 5716 5736 5702 5739 5746 5756 5763 5755 5747 5753 5757 5759 5750 5737 5727 5721 5714 5707 5698 5692 5688 5680 5675 5671 5668 5659 5651 5640 5634 5628 5624 5619 5614
5723 5734 5736 5736 5738 5744 5733 5748 5741 5740 5721 5722 5722 5702 5723 5731 5731 5731 5728 5730 5731 5742 5744 5726 5717 5709 5701 5694 5690 5683 5679 5673 5666 5664 5652 5645 5643 5636 5629 5623 5618 5613 5611 5606
5726 5743 5744 5742 5748 5745 5750 5733 5716 5703 5697 5682 5708 5699 5699 5703 5706 5713 5711 5714 5720 5725 5722 5715 5706 5700 5690 5684 5680 5672 5664 5658 5655 5648 5643 5633 5629 5626 5620 5613 5608 5603 5599 5596
5721 5724 5742 5750 5735 5737 5727 5704 5672 5675 5664 5670 5700 5688 5692 5705 5709 5710 5712 5714 5715 5714 5708 5701 5694 5688 5684 5679 5676 5668 5653 5645 5643 5637 5633 5620 5618 5615 5609 5604 5598 5593 5590 5585
5689 5687 5726 5742 5733 5723 5717 5707 5664 5667 5651 5673 5688 5679 5692 5706 5705 5703 5703 5700 5699 5694 5693 5690 5685 5678 5671 5665 5660 5650 5654 5635 5630 5629 5627 5614 5610 5606 5598 5593 5590 5586 5581 5575
5685 5696 5731 5740 5743 5737 5715 5700 5709 5667 5657 5662 5672 5687 5696 5700 5695 5691 5688 5687 5681 5680 5676 5673 5670 5665 5658 5652 5649 5648 5635 5627 5627 5620 5616 5609 5603 5599 5590 5585 5581 5578 5576 5567
5706 5695 5721 5733 5734 5726 5720 5715 5688 5668 5654 5658 5663 5676 5675 5692 5686 5680 5676 5674 5674 5669 5663 5658 5653 5647 5642 5638 5637 5637 5636 5629 5619 5608 5602 5600 5596 5591 5584 5577 5574 5573 5568 5559
5704 5697 5700 5720 5712 5703 5701 5693 5679 5670 5657 5644 5640 5661 5690 5690 5690 5681 5674 5670 5666 5659 5653 5648 5639 5634 5628 5627 5621 5616 5615 5622 5611 5601 5598 5596 5590 5584 5578 5573 5569 5565 5560 5550
5707 5690 5677 5692 5708 5711 5710 5696 5684 5661 5660 5642 5645 5658 5700 5692 5686 5680 5673 5669 5659 5654 5646 5636 5631 5624 5617 5612 5606 5603 5606 5602 5595 5595 5590 5585 5581 5578 5571 5568 5562 5556 5548 5543
5704 5677 5662 5670 5688 5703 5693 5690 5681 5667 5657 5647 5638 5653 5690 5689 5686 5677 5669 5664 5658 5648 5638 5630 5624 5617 5610 5601 5597 5595 5594 5588 5583 5586 5582 5578 5576 5571 5566 5559 5551 5546 5538 5538
5705 5673 5678 5667 5680 5688 5685 5686 5682 5679 5656 5647 5650 5672 5678 5674 5677 5672 5665 5659 5651 5643 5634 5625 5613 5606 5601 5594 5588 5584 5582 5579 5580 5579 5574 5573 5572 5563 5557 5551 5542 5536 5533 5533
5689 5670 5678 5679 5688 5691 5689 5682 5677 5680 5670 5665 5670 5663 5681 5680 5678 5680 5667 5655 5646 5637 5629 5617 5608 5598 5589 5582 5576 5579 5577 5573 5573 5572 5568 5566 5563 5558 5553 5539 5535 5528 5529 5529
5672 5656 5671 5664 5674 5680 5676 5678 5673 5672 5666 5667 5666 5661 5680 5679 5674 5669 5663 5655 5645 5637 5626 5616 5606 5596 5586 5578 5570 5568 5573 5569 5568 5565 5560 5559 5555 5553 5543 5531 5526 5523 5526 5524
5665 5654 5649 5648 5659 5664 5655 5668 5671 5670 5668 5667 5656 5665 5667 5668 5667 5665 5659 5653 5646 5636 5624 5612 5602 5592 5582 5569 5565 5562 5564 5564 5562 5558 5554 5552 5549 5546 5535 5526 5519 5519 5520 5518
5649 5642 5635 5629 5642 5626 5655 5669 5674 5665 5658 5656 5658 5661 5660 5661 5650 5649 5652 5647 5639 5629 5618 5606 5592 5580 5570 5562 5555 5556 5557 5555 5554 5553 5548 5547 5545 5542 5527 5522 5515 5515 5514 5513
5647 5637 5620 5617 5615 5631 5650 5655 5651 5652 5648 5652 5653 5652 5646 5643 5646 5646 5638 5640 5631 5621 5609 5598 5585 5573 5563 5557 5553 5552 5549 5546 5547 5547 5544 5542 5542 5535 5524 5517 5511 5511 5509 5509
5639 5635 5627 5607 5612 5607 5637 5657 5665 5660 5633 5652 5651 5648 5640 5639 5637 5642 5627 5624 5614 5608 5601 5589 5578 5568 5563 5557 5553 5547 5543 5541 5543 5542 5539 5539 5536 5528 5523 5514 5509 5507 5504 5504
5612 5609 5609 5594 5604 5612 5640 5656 5659 5630 5626 5652 5651 5647 5639 5636 5634 5621 5614 5607 5603 5596 5589 5580 5572 5563 5554 5554 5549 5541 5538 5539 5539 5536 5535 5536 5528 5526 5519 5512 5507 5506 5503 5503
5609 5597 5594 5589 5595 5604 5646 5647 5637 5641 5647 5649 5648 5644 5635 5618 5610 5606 5601 5595 5590 5587 5581 5573 5563 5556 5548 5549 5542 5537 5536 5535 5534 5533 5532 5529 5527 5522 5516 5510 5507 5504 5500 5499
5603 5606 5603 5605 5605 5625 5635 5644 5646 5643 5642 5640 5639 5631 5620 5610 5602 5596 5589 5585 5581 5577 5573 5566 5558 5548 5544 5542 5537 5536 5535 5533 5532 5530 5527 5525 5522 5518 5513 5508 5506 5502 5497 5495
5600 5602 5600 5606 5616 5621 5627 5630 5635 5636 5634 5628 5625 5617 5613 5605 5596 5590 5583 5577 5572 5570 5565 5559 5552 5546 5543 5539 5535 5535 5533 5531 5530 5526 5522 5520 5516 5514 5510 5506 5504 5500 5497 5493
5591 5595 5593 5594 5605 5612 5620 5621 5623 5620 5619 5614 5610 5607 5601 5597 5589 5585 5577 5571 5568 5563 5557 5549 5543 5540 5539 5535 5533 5532 5531 5530 5527 5521 5519 5515 5513 5509 5506 5504 5502 5500 5497 5493
5581 5586 5584 5587 5598 5599 5604 5608 5611 5611 5609 5603 5600 5593 5591 5589 5582 5576 5569 5566 5560 5552 5545 5538 5535 5534 5532 5529 5527 5528 5527 5528 5523 5518 5515 5513 5511 5508 5502 5500 5500 5499 5495 5492